Showing default

HJS-9D, 68834

Orbit data source: Space-Track

HJS-9D, 68834 is a Chinese payload satellite in LEO that was launched on Fri, 24 Apr 2026 UTC via a CHANG ZHENG 2D launch vehicle from the Xichang Space Center, China (XSC). Payload-class satellites include a variety of spacecraft equipped with specific instruments for various scientific and technological missions. These include communications satellites like Starlink; space stations such as the ISS; scientific satellites like the Hubble; Earth observation satellites from companies like Planet Labs, Umbra, and HawkEye 360; GPS; miniature CubeSats for education and research; and military/defense satellites.

Loading next visibility...
Identifier
68834, 2026-091D
Orbit
LEO
Country
Flag of CNCN / PRC
Related business
None
Manufacturer
Unknown
Mission
Operational spacecraft
Bus & Motor
Unknown
Mass
Unknown
Launch date (UTC)
2026-04-24 (1 week ago)
Launch vehicle
CHANG ZHENG 2D
Launch site
Xichang Space Center, China (XSC)
Object type
Payload
Rocket body
Debris
Shape & HBR
Unknown
Radar Cross Section
RCS unknown

Expand to show TLE details & history
Last TLE update: 3 days ago

TLE from 3 days ago
0 HJS-9D
1 68834U 26091D   26118.72311870  .00001556  00000-0  85606-4 0  9990
2 68834  54.9992 237.8086 0009094 308.4257  51.5946 15.20161859   686
Epoch: 2026-04-28T17:21Z
TLE epoch observation values (Epoch: 2026-04-28T17:21:17.455Z)
Latitude
-0.00002°
Longitude
120.79152°
Altitude
502.557 km
Speed
7.616 km/s
True Right ascension
15h 51m 14s
True Declination
0° 00' 00"
Sunlit
Object was in full shadow at epoch
Visualization orbit readout
Latitude
Unknown
Longitude
Unknown
Altitude
Unknown
Speed
Unknown
Apparent Right ascension
Unknown
Apparent Declination
Unknown
Sunlit
N/A
Visualization observer readout
Local Sidereal Time
19:16:03
Azimuth
Unknown
Elevation
Unknown
Doppler factor
Unknown
Orbital elements
Apogee altitude
511.574 km
Perigee altitude
499.055 km
Semi-major axis
6,883.452 km
Eccentricity
0.00091
Inclination
54.9992°
RAAN
237.8086°
Arg. of periapsis
308.4257°
True anomaly
51.67632°
Mean anomaly
51.5946°
Eccentric anomaly
51.63545°
Mean motion
3.80044 °/min
Orbital period
94.73 mins
BSTAR
0.000085606
Loading maneuver chart data...
Computing Atmospheric mass density...
Loading historical data...
Loading historical data...
Loading historical data...
Loading historical data...
Loading historical data...
Loading historical data...
Loading historical data...
Other satellites on launch #91 in the year 2026 (2026-04-24 UTC)

Documentation

Showing up to 5 results
|